Flag for Oman Weather past 2 weeks in Salalah, Oman

Now
70 °F

Mild.


Feels Like: 70 °F
Forecast: 60 / 82 °F
Wind: 5 mph from North

Location: Salalah Airport

Current Time: Jan 28, 2015 at 1:47:51 AM

Latest Report: Jan 28, 2015 at 12:50 AM


Visibility: N/A

Pressure: 30.04 "Hg

Humidity: 64%

Dew point: 57 °F

Location of SalalahLocation

Historic Weather in Salalah — Graph

°F

Salalah temperature yesterday

Maximum temperature yesterday: 79 °F (at 10:50 AM)
Minimum temperature yesterday: 64 °F (at 6:50 AM)
Average temperature yesterday: 73 °F

Past Weeks' High & Low Weather Summary

 TemperatureHumidityPressure
High84 °F (Jan 16, 1:50 PM)78% (Jan 18, 6:50 AM)30.24 "Hg (Jan 18, 6:50 AM)
Low61 °F (Jan 22, 6:50 AM)8% (Jan 21, 2:50 PM)29.89 "Hg (Jan 19, 3:50 PM)
Average72 °F39%30.08 "Hg
* Reported Jan 12 11:50 PM — Jan 27 11:50 PM, Salalah, Weather by CustomWeather, © 2014

Note: Actual official high and low records may vary slightly from our data, if they occured in-between our weather recording intervals... More about our weather records

Advertising

Salalah weather history for previous 24 hours

 ConditionsComfort  
Time TempWeatherWind HumidityBarometerVisibility
11:50 PM
Jan 27
70 °FMild.6 mph64%30.07 "HgN/A
10:50 PM72 °FMild.6 mph61%30.09 "HgN/A
9:50 PM73 °FMild.3 mph61%30.09 "HgN/A
8:50 PM73 °FMild.2 mph61%30.09 "HgN/A
7:50 PM73 °FMild.5 mph61%30.07 "HgN/A
6:50 PM75 °FMild.7 mph54%30.07 "HgN/A
5:50 PM77 °FWarm.9 mph44%30.04 "HgN/A
4:50 PM77 °FWarm.10 mph42%30.04 "HgN/A
3:50 PM79 °FWarm.12 mph48%30.04 "HgN/A
2:50 PM79 °FWarm.12 mph45%30.04 "HgN/A
1:50 PM79 °FWarm.10 mph42%30.07 "HgN/A
12:50 PM79 °FPassing clouds.12 mph45%30.09 "HgN/A
11:50 AM77 °FPassing clouds.12 mph44%30.12 "HgN/A
10:50 AM79 °FPleasantly warm.5 mph28%30.15 "HgN/A
9:50 AM75 °FMild.3 mph41%30.15 "HgN/A
8:50 AM73 °FMild.6 mph41%30.15 "HgN/A
7:50 AM66 °FPassing clouds.6 mph52%30.15 "HgN/A
6:50 AM64 °FMild.3 mph52%30.12 "HgN/A
5:50 AM66 °FMild.8 mph49%30.09 "HgN/A
4:50 AM66 °FMild.3 mph46%30.09 "HgN/A
3:50 AM66 °FMild.5 mph40%30.07 "HgN/A
2:50 AM68 °FMild.7 mph33%30.07 "HgN/A
1:50 AM70 °FMild.9 mph29%30.07 "HgN/A
Weather by CustomWeather, © 2014

See weather overviewHow to use our weather pages